SL-3 DEB, 14928

Orbit data source: Space-Track

SL-3 DEB, 14928 is space debris in SSO originally from a launch on Sun, 24 Jul 1983 UTC launched from the Tyuratam Missile And Space Complex (TTMTR). Debris objects in space refer to the collection of defunct objects orbiting the Earth. Examples of debris include non-operational satellites, rocket bodies, and fragments generated from explosions, collisions, or faulty payload assembly.

Loading next visibility...
Identifier
14928, 1983-075F
Orbit
SSO
Country
Flag of CISCIS
Related business
Manufacturer
Unknown
Mission
Spacecraft
Bus & Motor
Unknown
Mass
Unknown
Launch date (UTC)
1983-07-24 (43 years ago)
Launch vehicle
Unknown
Launch site
Tyuratam Missile And Space Complex (TTMTR)
Object type
Payload
Rocket body
Debris
Shape & HBR
Unknown shape, 0.1 m
Radar Cross Section
Medium (>0.1 m² and <1 m²)

Expand to show TLE details & history
Last TLE update: 2 days ago

TLE from 2 days ago
0 SL-3 DEB
1 14928U 83075F   26171.42580419  .00009908  00000-0  23351-3 0  9990
2 14928  97.8150 133.8398 0018266  38.4208 321.8334 15.41973998319305
Epoch: 2026-06-20T10:13Z
TLE epoch observation values (Epoch: 2026-06-20T10:13:09.482Z)
Latitude
-0.00006°
Longitude
71.90969°
Altitude
433.606 km
Speed
7.657 km/s
True Right ascension
08h 55m 21s
True Declination
0° 00' 00"
Sunlit
Object was in daylight at epoch
Visualization orbit readout
Latitude
Unknown
Longitude
Unknown
Altitude
Unknown
Speed
Unknown
Apparent Right ascension
Unknown
Apparent Declination
Unknown
Sunlit
N/A
Visualization observer readout
Local Sidereal Time
23:18:19
Azimuth
Unknown
Elevation
Unknown
Doppler factor
Unknown
Orbital elements
Apogee altitude
449.688 km
Perigee altitude
424.79 km
Semi-major axis
6,815.376 km
Eccentricity
0.00183
Inclination
97.815°
RAAN
133.8398°
Arg. of periapsis
38.4208°
True anomaly
321.70382°
Mean anomaly
321.8334°
Eccentric anomaly
321.76863°
Mean motion
3.85752 °/min
Orbital period
93.32 mins
BSTAR
0.00023351
Loading maneuver chart data...
Computing Atmospheric mass density...

Documentation

Showing up to 5 results
|